Location: Marcé
(47.5801°N, 0.3280°W)
Time: 15:01:28
(UTC+01:00)

Vanguard 3 - Pass Details

Date: 12 December 2021
Orbit: 508 x 3260 km, 33.3° (Epoch: 20 January)

Event Time Altitude Azimuth Distance (km) Brightness Sun altitude
Rises 04:01:07 0° 248° (WSW) 6,415 - -45.7°
Reaches altitude 10° 04:05:09 10° 244° (WSW) 5,664 - -45.1°
Exits shadow 04:19:46 49° 196° (SSW) 3,858 10.2 -42.7°
Maximum altitude 04:22:38 51° 176° (S) 3,799 10.2 -42.2°
Drops below altitude 10° 04:40:13 10° 108° (ESE) 5,697 12.0 -39.3°
Sets 04:44:17 0° 103° (ESE) 6,454 12.5 -38.6°
